Weather History for KTCS - January, 2013

Change the Weather History Date:

Tuesday, January 15, 2013

  Actual Average Record
Temperature  
Mean Temperature 24 °F -  
Max Temperature 35 °F 54 °F 66 °F (2003)
Min Temperature 12 °F 28 °F 12 °F (2013)
Degree Days  
Heating Degree Days 41    
Month to date heating degree days 482  
Since 1 July heating degree days 1600  
Moisture  
Dew Point -1 °F    
Average Humidity 40    
Maximum Humidity 61    
Minimum Humidity 19    
Precipitation  
Precipitation 0.00 in - 0.17 in (2004)
Month to date precipitation T  
Year to date precipitation T  
Sea Level Pressure  
Sea Level Pressure 30.24 in    
Wind  
Wind Speed 6 mph (NNW)    
Max Wind Speed 14 mph    
Max Gust Speed 18 mph    
Visibility 10 miles    
Events      
T = Trace of Precipitation, MM = Missing Value Source: NWS Daily Summary

Daily Weather History Graph

Daily Weather History Graph

Search for Another Location

Airport or City:

Trip Planner

Search our weather history database for the weather conditions in past years. The results will help you decide how hot, cold, wet, or windy it might be!

Date:

Astronomy

Jan. 15, 2013 Rise Set
Actual Time 7:12 AM MST 5:25 PM MST
Civil Twilight 6:45 AM MST 5:51 PM MST
Nautical Twilight 6:15 AM MST 6:22 PM MST
Astronomical Twilight 5:45 AM MST 6:52 PM MST
Moon 9:35 AM MST (1/15) 10:00 PM MST (1/15)
Length of Visible Light 11h 06m
Length of Day
10h 12m
Waxing Crescent, 20% of the Moon is Illuminated
Jan 15
Waxing Crescent
Jan 18
First Quarter
Jan 26
Full
Feb 3
Last Quarter
Feb 10
New

Hourly Weather History & Observations

Time (MST) Temp. Windchill Dew Point Humidity Pressure Visibility Wind Dir Wind Speed Gust Speed Precip Events Conditions
12:53 AM 21.9 °F 14.5 °F 3.0 °F 44% 30.07 in 10.0 mi North 5.8 mph - N/A   Clear
1:53 AM 19.9 °F 14.9 °F 5.0 °F 52% 30.09 in 10.0 mi NNW 3.5 mph - N/A   Clear
2:53 AM 18.0 °F 8.7 °F 6.1 °F 60% 30.11 in 10.0 mi NW 6.9 mph - N/A   Clear
3:53 AM 18.0 °F 9.8 °F 1.9 °F 50% 30.12 in 10.0 mi WNW 5.8 mph - N/A   Clear
4:53 AM 15.1 °F 9.4 °F 1.0 °F 54% 30.15 in 10.0 mi NNW 3.5 mph - N/A   Clear
5:53 AM 16.0 °F 5.3 °F 1.9 °F 54% 30.17 in 10.0 mi NW 8.1 mph - N/A   Clear
6:53 AM 15.1 °F 4.2 °F 1.0 °F 54% 30.21 in 10.0 mi WNW 8.1 mph - N/A   Clear
7:53 AM 16.0 °F 8.8 °F 1.0 °F 52% 30.25 in 10.0 mi NW 4.6 mph - N/A   Clear
8:53 AM 19.9 °F 14.9 °F 1.0 °F 44% 30.25 in 10.0 mi Variable 3.5 mph - N/A   Clear
9:53 AM 21.9 °F - 1.9 °F 42% 30.26 in 10.0 mi Calm Calm - N/A   Clear
10:53 AM 26.1 °F 20.5 °F 1.9 °F 35% 30.25 in 10.0 mi Variable 4.6 mph - N/A   Clear
11:53 AM 28.0 °F 21.7 °F -0.0 °F 30% 30.22 in 10.0 mi North 5.8 mph - N/A   Clear
12:53 PM 30.9 °F 25.2 °F -0.9 °F 26% 30.18 in 10.0 mi Variable 5.8 mph - N/A   Clear
1:53 PM 33.1 °F 24.9 °F -2.0 °F 22% 30.18 in 10.0 mi NE 10.4 mph - N/A   Clear
2:53 PM 34.0 °F 26.6 °F -2.9 °F 21% 30.20 in 10.0 mi NNE 9.2 mph - N/A   Clear
3:53 PM 34.0 °F 25.5 °F -5.1 °F 19% 30.22 in 10.0 mi NNE 11.5 mph - N/A   Clear
4:53 PM 34.0 °F 26.6 °F -6.0 °F 18% 30.26 in 10.0 mi North 9.2 mph - N/A   Clear
5:53 PM 30.0 °F - -5.1 °F 22% 30.29 in 10.0 mi Calm Calm - N/A   Clear
6:53 PM 28.0 °F 20.0 °F -4.0 °F 25% 30.32 in 10.0 mi North 8.1 mph 16.1 mph N/A   Clear
7:53 PM 27.0 °F 19.5 °F -4.0 °F 26% 30.34 in 10.0 mi NNW 6.9 mph - N/A   Clear
8:53 PM 24.1 °F 18.2 °F -5.1 °F 28% 30.35 in 10.0 mi NW 4.6 mph - N/A   Clear
9:53 PM 19.9 °F 13.4 °F -6.0 °F 32% 30.37 in 10.0 mi North 4.6 mph - N/A   Clear
10:53 PM 19.0 °F 11.1 °F -4.0 °F 36% 30.37 in 10.0 mi North 5.8 mph - N/A   Clear
11:53 PM 19.0 °F 12.3 °F -4.0 °F 36% 30.39 in 10.0 mi North 4.6 mph - N/A   Clear